| time (UTC) | temp C | wind direction | speed KPH | gust KPH | rain 1hr cm | rain 24hr cm | rain mn cm | humidity % | barometer mb |
| 20260510021845 | 18 | 159 | 3.2 | 4.8 | 0.00 | 0.00 | 0.00 | 62 | 1029.1 |
| 20260510021345 | 18 | 151 | 3.2 | 4.8 | 0.00 | 0.00 | 0.00 | 63 | 1029.1 |
| 20260510020846 | 18 | 146 | 4.8 | 4.8 | 0.00 | 0.00 | 0.00 | 65 | 1029.1 |
| 20260510020345 | 18 | 155 | 4.8 | 4.8 | 0.00 | 0.00 | 0.00 | 64 | 1029.1 |
| 20260510015846 | 18 | 109 | 1.6 | 8.0 | 0.00 | 0.00 | 0.00 | 66 | 1029.5 |
| 20260510015345 | 18 | 95 | 1.6 | 4.8 | 0.00 | 0.00 | 0.00 | 68 | 1029.5 |
| 20260510014845 | 18 | 145 | 4.8 | 8.0 | 0.00 | 0.00 | 0.00 | 68 | 1029.5 |
| 20260510014346 | 17 | 109 | 4.8 | 8.0 | 0.00 | 0.00 | 0.00 | 67 | 1029.5 |
| 20260510013845 | 17 | 212 | 3.2 | 8.0 | 0.00 | 0.00 | 0.00 | 71 | 1029.5 |
| 20260510013346 | 17 | 136 | 6.4 | 8.0 | 0.00 | 0.00 | 0.00 | 69 | 1029.5 |
| 20260510012845 | 17 | 136 | 6.4 | 8.0 | 0.00 | 0.00 | 0.00 | 71 | 1029.5 |
| 20260510012345 | 17 | 145 | 4.8 | 8.0 | 0.00 | 0.00 | 0.00 | 74 | 1029.5 |
| 20260510011845 | 17 | 155 | 4.8 | 8.0 | 0.00 | 0.00 | 0.00 | 73 | 1029.8 |
| 20260510011345 | 16 | 154 | 4.8 | 4.8 | 0.00 | 0.00 | 0.00 | 74 | 1029.8 |
| 20260510010845 | 16 | 117 | 4.8 | 4.8 | 0.00 | 0.00 | 0.00 | 74 | 1029.8 |
| 20260510010345 | 16 | 143 | 3.2 | 8.0 | 0.00 | 0.00 | 0.00 | 74 | 1029.8 |
| 20260510005845 | 16 | 125 | 3.2 | 8.0 | 0.00 | 0.00 | 0.00 | 77 | 1029.5 |
| 20260510005345 | 16 | 107 | 3.2 | 4.8 | 0.00 | 0.00 | 0.00 | 77 | 1029.8 |
| 20260510004845 | 16 | 130 | 3.2 | 4.8 | 0.00 | 0.00 | 0.00 | 80 | 1029.8 |
| 20260510004346 | 16 | 134 | 4.8 | 8.0 | 0.00 | 0.00 | 0.00 | 79 | 1029.8 |
| 20260510003845 | 15 | 144 | 6.4 | 9.7 | 0.00 | 0.00 | 0.00 | 77 | 1029.5 |
| 20260510003346 | 15 | 137 | 4.8 | 4.8 | 0.00 | 0.00 | 0.00 | 80 | 1029.8 |
| 20260510002845 | 15 | 136 | 4.8 | 8.0 | 0.00 | 0.00 | 0.00 | 83 | 1029.8 |
| 20260510002345 | 14 | 153 | 3.2 | 4.8 | 0.00 | 0.00 | 0.00 | 82 | 1029.8 |
| 20260510001845 | 13 | 162 | 3.2 | 3.2 | 0.00 | 0.00 | 0.00 | 84 | 1029.8 |
| 20260510001345 | 13 | 115 | 1.6 | 1.6 | 0.00 | 0.00 | 0.00 | 84 | 1029.8 |
| 20260510000845 | 13 | 136 | 1.6 | 1.6 | 0.00 | 0.00 | 0.00 | 85 | 1029.8 |
| 20260510000345 | 13 | 135 | 1.6 | 1.6 | 0.00 | 0.00 | 0.00 | 86 | 1030.1 |
| 20260509235845 | 13 | 100 | 1.6 | 1.6 | 0.00 | 0.00 | 0.00 | 86 | 1029.8 |
| 20260509235346 | 13 | 89 | 0.0 | 1.6 | 0.00 | 0.00 | 0.00 | 87 | 1030.1 |
| 20260509234845 | 12 | 49 | 0.0 | 1.6 | 0.00 | 0.00 | 0.00 | 87 | 1030.1 |
| 20260509234346 | 12 | 8 | 0.0 | 0.0 | 0.00 | 0.00 | 0.00 | 88 | 1030.1 |
| 20260509233845 | 12 | 8 | 1.6 | 1.6 | 0.00 | 0.00 | 0.00 | 88 | 1030.1 |
| 20260509233345 | 12 | 8 | 1.6 | 1.6 | 0.00 | 0.00 | 0.00 | 88 | 1029.8 |
| 20260509232845 | 12 | 8 | 0.0 | 0.0 | 0.00 | 0.00 | 0.00 | 87 | 1030.1 |
| 20260509232346 | 12 | 8 | 1.6 | 0.0 | 0.00 | 0.00 | 0.00 | 87 | 1029.8 |
| 20260509231845 | 12 | 7 | 1.6 | 1.6 | 0.00 | 0.00 | 0.00 | 87 | 1029.8 |
| 20260509231345 | 12 | 350 | 0.0 | 0.0 | 0.00 | 0.00 | 0.00 | 86 | 1029.8 |
| 20260509230845 | 13 | 350 | 0.0 | 0.0 | 0.00 | 0.00 | 0.00 | 85 | 1029.8 |
| 20260509230347 | 13 | 338 | 0.0 | 0.0 | 0.00 | 0.00 | 0.00 | 89 | 1029.8 |
| 20260509225845 | 11 | 338 | 0.0 | 0.0 | 0.00 | 0.00 | 0.00 | 91 | 1029.5 |
| 20260509225345 | 11 | 337 | 0.0 | 0.0 | 0.00 | 0.00 | 0.00 | 92 | 1029.5 |
| 20260509224846 | 11 | 337 | 0.0 | 0.0 | 0.00 | 0.00 | 0.00 | 93 | 1029.5 |
| 20260509224346 | 11 | 337 | 0.0 | 0.0 | 0.00 | 0.00 | 0.00 | 93 | 1029.5 |
| 20260509223847 | 10 | 337 | 0.0 | 0.0 | 0.00 | 0.00 | 0.00 | 93 | 1029.5 |
| 20260509223346 | 10 | 337 | 0.0 | 0.0 | 0.00 | 0.00 | 0.00 | 94 | 1029.1 |
| 20260509222846 | 9 | 337 | 0.0 | 0.0 | 0.00 | 0.00 | 0.00 | 93 | 1029.1 |
| 20260509222346 | 9 | 337 | 0.0 | 0.0 | 0.00 | 0.00 | 0.00 | 94 | 1029.1 |
| 20260509221845 | 8 | 337 | 0.0 | 0.0 | 0.00 | 0.00 | 0.00 | 93 | 1029.1 |
| 20260509221345 | 8 | 337 | 0.0 | 0.0 | 0.00 | 0.00 | 0.00 | 93 | 1029.5 |
| 20260509220845 | 8 | 337 | 0.0 | 0.0 | 0.00 | 0.00 | 0.00 | 93 | 1029.1 |
| 20260509220345 | 8 | 337 | 0.0 | 0.0 | 0.00 | 0.00 | 0.00 | 93 | 1028.8 |
| 20260509215846 | 8 | 337 | 0.0 | 0.0 | 0.00 | 0.00 | 0.00 | 93 | 1029.1 |
| 20260509215346 | 8 | 337 | 0.0 | 0.0 | 0.00 | 0.00 | 0.00 | 93 | 1028.8 |
| 20260509214845 | 8 | 337 | 0.0 | 0.0 | 0.00 | 0.00 | 0.00 | 93 | 1029.1 |
| 20260509214350 | 8 | 337 | 0.0 | 0.0 | 0.00 | 0.00 | 0.00 | 93 | 1028.8 |
| 20260509213845 | 8 | 337 | 0.0 | 0.0 | 0.00 | 0.00 | 0.00 | 93 | 1028.8 |
| 20260509213345 | 8 | 337 | 0.0 | 0.0 | 0.00 | 0.00 | 0.00 | 93 | 1028.8 |
| 20260509212846 | 8 | 337 | 0.0 | 0.0 | 0.00 | 0.00 | 0.00 | 93 | 1028.8 |
| 20260509212346 | 8 | 337 | 0.0 | 0.0 | 0.00 | 0.00 | 0.00 | 93 | 1028.8 |
| 20260509211845 | 8 | 337 | 0.0 | 0.0 | 0.00 | 0.00 | 0.00 | 93 | 1028.8 |
| 20260509211354 | 8 | 337 | 0.0 | 0.0 | 0.00 | 0.00 | 0.00 | 92 | 1028.8 |
| 20260509210845 | 8 | 337 | 0.0 | 0.0 | 0.00 | 0.00 | 0.00 | 92 | 1028.8 |
| 20260509210346 | 8 | 338 | 0.0 | 0.0 | 0.00 | 0.00 | 0.00 | 93 | 1028.8 |
| 20260509205846 | 8 | 337 | 0.0 | 0.0 | 0.00 | 0.00 | 0.00 | 93 | 1028.8 |
| 20260509205345 | 8 | 337 | 0.0 | 0.0 | 0.00 | 0.00 | 0.00 | 93 | 1028.4 |
| 20260509204845 | 8 | 337 | 0.0 | 1.6 | 0.00 | 0.00 | 0.00 | 93 | 1028.1 |
| 20260509204345 | 8 | 338 | 1.6 | 3.2 | 0.00 | 0.00 | 0.00 | 93 | 1028.4 |
| 20260509203845 | 8 | 331 | 1.6 | 1.6 | 0.00 | 0.00 | 0.00 | 93 | 1028.1 |
| 20260509203345 | 8 | 312 | 0.0 | 1.6 | 0.00 | 0.00 | 0.00 | 93 | 1028.4 |
| 20260509202846 | 8 | 312 | 0.0 | 0.0 | 0.00 | 0.00 | 0.00 | 93 | 1028.4 |
| 20260509202346 | 8 | 311 | 0.0 | 0.0 | 0.00 | 0.00 | 0.00 | 93 | 1028.4 |
| 20260509201845 | 7 | 312 | 0.0 | 0.0 | 0.00 | 0.00 | 0.00 | 93 | 1028.1 |
| 20260509201346 | 7 | 312 | 0.0 | 0.0 | 0.00 | 0.00 | 0.00 | 93 | 1028.1 |
| 20260509200845 | 7 | 311 | 0.0 | 0.0 | 0.00 | 0.00 | 0.00 | 93 | 1028.1 |
| 20260509200345 | 7 | 312 | 1.6 | 0.0 | 0.00 | 0.00 | 0.00 | 92 | 1028.1 |
| 20260509195845 | 7 | 311 | 0.0 | 0.0 | 0.00 | 0.00 | 0.00 | 92 | 1028.1 |
| 20260509195345 | 7 | 312 | 1.6 | 1.6 | 0.00 | 0.00 | 0.00 | 92 | 1028.1 |
| 20260509194845 | 7 | 311 | 0.0 | 1.6 | 0.00 | 0.00 | 0.00 | 92 | 1028.1 |
| 20260509194345 | 7 | 311 | 0.0 | 0.0 | 0.00 | 0.00 | 0.00 | 92 | 1028.1 |
| 20260509193845 | 8 | 311 | 0.0 | 0.0 | 0.00 | 0.00 | 0.00 | 92 | 1028.1 |
| 20260509193346 | 8 | 312 | 1.6 | 1.6 | 0.00 | 0.00 | 0.00 | 92 | 1028.1 |
| 20260509192845 | 8 | 315 | 3.2 | 3.2 | 0.00 | 0.00 | 0.00 | 92 | 1028.1 |
| 20260509192345 | 8 | 17 | 1.6 | 1.6 | 0.00 | 0.00 | 0.00 | 92 | 1028.1 |
| 20260509191845 | 8 | 17 | 1.6 | 1.6 | 0.00 | 0.00 | 0.00 | 92 | 1027.8 |
| 20260509191345 | 8 | 17 | 1.6 | 1.6 | 0.00 | 0.00 | 0.00 | 92 | 1027.8 |
| 20260509190845 | 8 | 17 | 0.0 | 0.0 | 0.00 | 0.00 | 0.00 | 92 | 1027.8 |
| 20260509190346 | 7 | 17 | 0.0 | 0.0 | 0.00 | 0.00 | 0.00 | 92 | 1028.1 |
| 20260509185845 | 7 | 17 | 0.0 | 0.0 | 0.00 | 0.00 | 0.00 | 91 | 1027.8 |
| 20260509185346 | 8 | 17 | 0.0 | 0.0 | 0.00 | 0.00 | 0.00 | 91 | 1027.8 |
| 20260509184846 | 8 | 17 | 0.0 | 0.0 | 0.00 | 0.00 | 0.00 | 91 | 1028.1 |
| 20260509184345 | 8 | 17 | 0.0 | 0.0 | 0.00 | 0.00 | 0.00 | 91 | 1027.8 |
| 20260509183845 | 8 | 17 | 0.0 | 1.6 | 0.00 | 0.00 | 0.00 | 92 | 1027.8 |
| 20260509183346 | 8 | 17 | 1.6 | 0.0 | 0.00 | 0.00 | 0.00 | 91 | 1027.8 |
| 20260509182845 | 8 | 17 | 0.0 | 1.6 | 0.00 | 0.00 | 0.00 | 91 | 1027.4 |
| 20260509182346 | 8 | 17 | 0.0 | 1.6 | 0.00 | 0.00 | 0.00 | 91 | 1027.8 |
| 20260509181846 | 8 | 17 | 1.6 | 1.6 | 0.00 | 0.00 | 0.00 | 91 | 1027.4 |
| 20260509181345 | 8 | 17 | 1.6 | 1.6 | 0.00 | 0.00 | 0.00 | 91 | 1027.8 |
| 20260509180845 | 8 | 17 | 1.6 | 1.6 | 0.00 | 0.00 | 0.00 | 90 | 1027.8 |
| 20260509180346 | 8 | 18 | 1.6 | 1.6 | 0.00 | 0.00 | 0.00 | 90 | 1027.8 |
| 20260509175845 | 8 | 18 | 1.6 | 1.6 | 0.00 | 0.00 | 0.00 | 90 | 1027.8 |
| 20260509175346 | 8 | 18 | 0.0 | 0.0 | 0.00 | 0.00 | 0.00 | 90 | 1027.8 |
| 20260509174846 | 8 | 18 | 0.0 | 0.0 | 0.00 | 0.00 | 0.00 | 89 | 1027.8 |
| 20260509174345 | 9 | 18 | 0.0 | 0.0 | 0.00 | 0.00 | 0.00 | 89 | 1027.8 |
| 20260509173855 | 9 | 18 | 0.0 | 1.6 | 0.00 | 0.00 | 0.00 | 89 | 1027.8 |
| 20260509173345 | 10 | 18 | 0.0 | 0.0 | 0.00 | 0.00 | 0.00 | 89 | 1027.8 |
| 20260509172845 | 10 | 18 | 0.0 | 0.0 | 0.00 | 0.00 | 0.00 | 88 | 1027.8 |
| 20260509171918 | 10 | 18 | 0.0 | 0.0 | 0.00 | 0.00 | 0.00 | 88 | 1028.1 |
| 20260509171347 | 11 | 18 | 0.0 | 1.6 | 0.00 | 0.00 | 0.00 | 87 | 1027.8 |
| 20260509170845 | 11 | 53 | 0.0 | 0.0 | 0.00 | 0.00 | 0.00 | 87 | 1027.8 |
| 20260509170345 | 11 | 54 | 0.0 | 0.0 | 0.00 | 0.00 | 0.00 | 86 | 1027.8 |
| 20260509165845 | 11 | 57 | 0.0 | 3.2 | 0.00 | 0.00 | 0.00 | 86 | 1027.8 |
| 20260509165345 | 11 | 64 | 0.0 | 0.0 | 0.00 | 0.00 | 0.00 | 85 | 1028.1 |
| 20260509164845 | 12 | 64 | 3.2 | 3.2 | 0.00 | 0.00 | 0.00 | 85 | 1028.1 |
| 20260509164346 | 12 | 104 | 1.6 | 3.2 | 0.00 | 0.00 | 0.00 | 85 | 1027.8 |
| 20260509163846 | 12 | 93 | 1.6 | 1.6 | 0.00 | 0.00 | 0.00 | 85 | 1027.8 |
| 20260509163346 | 12 | 97 | 1.6 | 1.6 | 0.00 | 0.00 | 0.00 | 85 | 1027.8 |
| 20260509162845 | 12 | 90 | 1.6 | 4.8 | 0.00 | 0.00 | 0.00 | 86 | 1028.1 |
| 20260509162345 | 12 | 284 | 1.6 | 3.2 | 0.00 | 0.00 | 0.00 | 86 | 1028.1 |
| 20260509161846 | 12 | 84 | 0.0 | 0.0 | 0.00 | 0.00 | 0.00 | 86 | 1027.8 |
| 20260509161345 | 12 | 83 | 1.6 | 1.6 | 0.00 | 0.00 | 0.00 | 86 | 1028.1 |
| 20260509160847 | 12 | 80 | 1.6 | 3.2 | 0.00 | 0.00 | 0.00 | 87 | 1028.1 |
| 20260509160345 | 12 | 82 | 0.0 | 1.6 | 0.00 | 0.00 | 0.00 | 87 | 1027.8 |
| 20260509155845 | 12 | 83 | 0.0 | 0.0 | 0.00 | 0.00 | 0.00 | 87 | 1028.1 |
| 20260509155349 | 12 | 84 | 3.2 | 3.2 | 0.00 | 0.00 | 0.00 | 87 | 1028.1 |
| 20260509154845 | 12 | 118 | 1.6 | 3.2 | 0.00 | 0.00 | 0.00 | 87 | 1028.4 |
| 20260509154345 | 13 | 110 | 0.0 | 0.0 | 0.00 | 0.00 | 0.00 | 87 | 1028.4 |
| 20260509153846 | 13 | 94 | 0.0 | 0.0 | 0.00 | 0.00 | 0.00 | 87 | 1027.8 |
| 20260509153345 | 13 | 93 | 0.0 | 0.0 | 0.00 | 0.00 | 0.00 | 86 | 1028.4 |
| 20260509152845 | 13 | 94 | 0.0 | 0.0 | 0.00 | 0.00 | 0.00 | 85 | 1028.4 |
| 20260509152345 | 14 | 94 | 0.0 | 0.0 | 0.00 | 0.00 | 0.00 | 84 | 1028.1 |
| 20260509151845 | 14 | 94 | 0.0 | 1.6 | 0.00 | 0.00 | 0.00 | 84 | 1028.1 |
| 20260509151345 | 15 | 101 | 0.0 | 0.0 | 0.00 | 0.00 | 0.00 | 84 | 1028.4 |
| 20260509150847 | 15 | 102 | 1.6 | 8.0 | 0.00 | 0.00 | 0.00 | 84 | 1028.4 |
| 20260509150346 | 15 | 145 | 4.8 | 4.8 | 0.00 | 0.00 | 0.00 | 83 | 1028.4 |
| 20260509145845 | 15 | 147 | 4.8 | 9.7 | 0.00 | 0.00 | 0.00 | 82 | 1028.4 |
| 20260509145345 | 15 | 144 | 6.4 | 9.7 | 0.00 | 0.00 | 0.00 | 82 | 1028.4 |
| 20260509144845 | 15 | 147 | 3.2 | 11.3 | 0.00 | 0.00 | 0.00 | 83 | 1028.4 |
| 20260509143911 | 15 | 233 | 0.0 | 1.6 | 0.00 | 0.00 | 0.00 | 85 | 1028.8 |
| 20260509143345 | 15 | 249 | 0.0 | 1.6 | 0.00 | 0.00 | 0.00 | 85 | 1028.8 |
| 20260509142846 | 15 | 173 | 1.6 | 4.8 | 0.00 | 0.00 | 0.00 | 84 | 1028.8 |
| 20260509142345 | 15 | 150 | 4.8 | 9.7 | 0.00 | 0.00 | 0.00 | 85 | 1028.4 |
| 20260509141847 | 14 | 205 | 1.6 | 3.2 | 0.00 | 0.00 | 0.00 | 87 | 1028.8 |
| 20260509141346 | 14 | 200 | 1.6 | 3.2 | 0.00 | 0.00 | 0.00 | 86 | 1028.8 |
| 20260509140847 | 15 | 208 | 1.6 | 3.2 | 0.00 | 0.00 | 0.00 | 86 | 1028.8 |
| 20260509140345 | 15 | 194 | 3.2 | 3.2 | 0.00 | 0.00 | 0.00 | 86 | 1028.8 |
| 20260509135845 | 14 | 177 | 3.2 | 4.8 | 0.00 | 0.00 | 0.00 | 86 | 1028.8 |
| 20260509135345 | 14 | 159 | 4.8 | 4.8 | 0.00 | 0.00 | 0.00 | 87 | 1028.8 |
| 20260509134845 | 15 | 163 | 3.2 | 4.8 | 0.00 | 0.00 | 0.00 | 87 | 1028.8 |
| 20260509134346 | 15 | 157 | 4.8 | 9.7 | 0.00 | 0.00 | 0.00 | 86 | 1028.8 |
| 20260509133845 | 15 | 156 | 6.4 | 9.7 | 0.00 | 0.00 | 0.00 | 86 | 1028.8 |
| 20260509133345 | 15 | 129 | 6.4 | 9.7 | 0.00 | 0.00 | 0.00 | 85 | 1029.1 |
| 20260509132845 | 15 | 127 | 4.8 | 4.8 | 0.00 | 0.00 | 0.00 | 86 | 1028.8 |
| 20260509132345 | 15 | 148 | 1.6 | 3.2 | 0.00 | 0.00 | 0.00 | 86 | 1028.8 |
| 20260509131845 | 15 | 141 | 1.6 | 3.2 | 0.00 | 0.00 | 0.00 | 86 | 1029.1 |
| 20260509131346 | 15 | 145 | 3.2 | 3.2 | 0.00 | 0.00 | 0.00 | 86 | 1029.1 |
| 20260509130845 | 15 | 151 | 4.8 | 4.8 | 0.00 | 0.00 | 0.00 | 86 | 1029.1 |
| 20260509130346 | 15 | 183 | 4.8 | 4.8 | 0.00 | 0.00 | 0.00 | 85 | 1029.1 |
| 20260509125845 | 15 | 181 | 4.8 | 4.8 | 0.00 | 0.00 | 0.00 | 85 | 1029.1 |
| 20260509125345 | 15 | 160 | 4.8 | 8.0 | 0.00 | 0.00 | 0.00 | 85 | 1029.1 |
| 20260509124845 | 15 | 152 | 6.4 | 8.0 | 0.00 | 0.00 | 0.00 | 84 | 1028.8 |
| 20260509124346 | 15 | 160 | 4.8 | 8.0 | 0.00 | 0.00 | 0.00 | 84 | 1029.1 |
| 20260509123846 | 15 | 168 | 8.0 | 9.7 | 0.00 | 0.00 | 0.00 | 84 | 1029.1 |
| 20260509123345 | 15 | 177 | 3.2 | 8.0 | 0.00 | 0.00 | 0.00 | 84 | 1029.1 |
| 20260509122845 | 14 | 156 | 4.8 | 8.0 | 0.00 | 0.00 | 0.00 | 86 | 1029.1 |
| 20260509122346 | 14 | 168 | 0.0 | 3.2 | 0.00 | 0.00 | 0.00 | 86 | 1029.1 |
| 20260509121845 | 13 | 167 | 1.6 | 1.6 | 0.00 | 0.00 | 0.00 | 86 | 1029.1 |
| 20260509121345 | 13 | 167 | 0.0 | 0.0 | 0.00 | 0.00 | 0.00 | 84 | 1029.1 |
| 20260509120846 | 14 | 167 | 0.0 | 0.0 | 0.00 | 0.00 | 0.00 | 84 | 1029.1 |
| 20260509120345 | 14 | 167 | 0.0 | 0.0 | 0.00 | 0.00 | 0.00 | 83 | 1029.1 |
| 20260509115845 | 15 | 158 | 0.0 | 0.0 | 0.00 | 0.00 | 0.00 | 83 | 1029.1 |
| 20260509115345 | 15 | 158 | 1.6 | 3.2 | 0.00 | 0.00 | 0.00 | 83 | 1029.1 |
| 20260509114846 | 15 | 156 | 0.0 | 0.0 | 0.00 | 0.00 | 0.00 | 82 | 1029.1 |
| 20260509114346 | 15 | 156 | 1.6 | 1.6 | 0.00 | 0.00 | 0.00 | 82 | 1029.1 |
| 20260509113846 | 15 | 134 | 1.6 | 3.2 | 0.00 | 0.00 | 0.00 | 83 | 1029.1 |
| 20260509113345 | 15 | 127 | 0.0 | 1.6 | 0.00 | 0.00 | 0.00 | 83 | 1028.8 |
| 20260509112846 | 15 | 154 | 0.0 | 0.0 | 0.00 | 0.00 | 0.00 | 83 | 1029.1 |
| 20260509112346 | 15 | 154 | 1.6 | 3.2 | 0.00 | 0.00 | 0.00 | 83 | 1029.1 |
| 20260509111846 | 15 | 158 | 1.6 | 3.2 | 0.00 | 0.00 | 0.00 | 83 | 1029.1 |
| 20260509111345 | 15 | 161 | 1.6 | 1.6 | 0.00 | 0.00 | 0.00 | 83 | 1029.1 |
| 20260509110846 | 15 | 164 | 1.6 | 3.2 | 0.00 | 0.00 | 0.00 | 84 | 1029.1 |
| 20260509110346 | 15 | 159 | 3.2 | 3.2 | 0.00 | 0.00 | 0.00 | 84 | 1029.1 |
| 20260509105845 | 15 | 170 | 1.6 | 1.6 | 0.00 | 0.00 | 0.00 | 84 | 1029.1 |
| 20260509105345 | 15 | 170 | 1.6 | 3.2 | 0.00 | 0.00 | 0.00 | 84 | 1029.1 |
| 20260509104845 | 15 | 158 | 1.6 | 3.2 | 0.00 | 0.00 | 0.00 | 84 | 1029.1 |
| 20260509104346 | 15 | 159 | 3.2 | 3.2 | 0.00 | 0.00 | 0.00 | 85 | 1029.1 |
| 20260509103845 | 15 | 200 | 1.6 | 3.2 | 0.00 | 0.00 | 0.00 | 85 | 1029.1 |
| 20260509103345 | 14 | 195 | 3.2 | 3.2 | 0.00 | 0.00 | 0.00 | 85 | 1029.1 |
| 20260509102845 | 14 | 194 | 3.2 | 4.8 | 0.00 | 0.00 | 0.00 | 86 | 1029.1 |
| 20260509102346 | 14 | 192 | 3.2 | 4.8 | 0.00 | 0.00 | 0.00 | 86 | 1029.1 |
| 20260509101846 | 13 | 226 | 0.0 | 1.6 | 0.00 | 0.00 | 0.00 | 85 | 1029.1 |
| 20260509101345 | 14 | 221 | 0.0 | 0.0 | 0.00 | 0.00 | 0.00 | 85 | 1029.1 |
| 20260509100846 | 14 | 221 | 0.0 | 0.0 | 0.00 | 0.00 | 0.00 | 85 | 1029.1 |
| 20260509100345 | 14 | 191 | 3.2 | 3.2 | 0.00 | 0.00 | 0.00 | 85 | 1029.1 |
| 20260509095845 | 14 | 208 | 1.6 | 3.2 | 0.00 | 0.00 | 0.00 | 86 | 1029.1 |
| 20260509095345 | 13 | 207 | 1.6 | 4.8 | 0.00 | 0.00 | 0.00 | 86 | 1029.1 |
| 20260509094845 | 13 | 215 | 4.8 | 4.8 | 0.00 | 0.00 | 0.00 | 87 | 1029.1 |
| 20260509094347 | 13 | 186 | 4.8 | 11.3 | 0.00 | 0.00 | 0.00 | 87 | 1029.1 |
| 20260509093845 | 13 | 165 | 8.0 | 12.9 | 0.00 | 0.00 | 0.00 | 87 | 1029.1 |
| 20260509093345 | 14 | 156 | 9.7 | 16.1 | 0.00 | 0.00 | 0.00 | 86 | 1029.1 |
| 20260509092845 | 15 | 159 | 17.7 | 20.9 | 0.00 | 0.00 | 0.00 | 85 | 1029.1 |
| 20260509092345 | 15 | 177 | 8.0 | 16.1 | 0.00 | 0.00 | 0.00 | 82 | 1029.1 |
| 20260509091845 | 15 | 154 | 4.8 | 11.3 | 0.00 | 0.00 | 0.00 | 80 | 1029.1 |
| 20260509091345 | 15 | 166 | 8.0 | 11.3 | 0.00 | 0.00 | 0.00 | 81 | 1029.1 |
| 20260509090846 | 15 | 161 | 8.0 | 14.5 | 0.00 | 0.00 | 0.00 | 80 | 1029.1 |
| 20260509090345 | 15 | 154 | 8.0 | 12.9 | 0.00 | 0.00 | 0.00 | 81 | 1029.1 |
| 20260509085845 | 15 | 144 | 9.7 | 14.5 | 0.00 | 0.00 | 0.00 | 81 | 1028.8 |
| 20260509085345 | 15 | 155 | 8.0 | 11.3 | 0.00 | 0.00 | 0.00 | 81 | 1029.1 |
| 20260509084845 | 15 | 169 | 9.7 | 14.5 | 0.00 | 0.00 | 0.00 | 80 | 1029.1 |
| 20260509084345 | 15 | 162 | 9.7 | 12.9 | 0.00 | 0.00 | 0.00 | 81 | 1029.1 |
| 20260509083845 | 15 | 149 | 12.9 | 14.5 | 0.00 | 0.00 | 0.00 | 81 | 1028.8 |
| 20260509083345 | 15 | 161 | 9.7 | 12.9 | 0.00 | 0.00 | 0.00 | 81 | 1028.8 |
| 20260509082845 | 16 | 167 | 9.7 | 17.7 | 0.00 | 0.00 | 0.00 | 79 | 1028.8 |
| 20260509082345 | 16 | 161 | 9.7 | 14.5 | 0.00 | 0.00 | 0.00 | 76 | 1028.8 |
| 20260509081845 | 16 | 182 | 8.0 | 14.5 | 0.00 | 0.00 | 0.00 | 75 | 1028.8 |
| 20260509081345 | 16 | 145 | 11.3 | 11.3 | 0.00 | 0.00 | 0.00 | 75 | 1028.8 |
| 20260509080845 | 16 | 190 | 9.7 | 12.9 | 0.00 | 0.00 | 0.00 | 75 | 1028.8 |
| 20260509080345 | 16 | 175 | 6.4 | 9.7 | 0.00 | 0.00 | 0.00 | 75 | 1028.8 |
| 20260509075845 | 16 | 147 | 6.4 | 8.0 | 0.00 | 0.00 | 0.00 | 75 | 1028.8 |
| 20260509075345 | 16 | 174 | 6.4 | 8.0 | 0.00 | 0.00 | 0.00 | 75 | 1028.8 |
| 20260509074845 | 16 | 163 | 6.4 | 9.7 | 0.00 | 0.00 | 0.00 | 75 | 1028.8 |
| 20260509074345 | 16 | 144 | 6.4 | 9.7 | 0.00 | 0.00 | 0.00 | 75 | 1028.8 |
| 20260509073845 | 16 | 145 | 8.0 | 11.3 | 0.00 | 0.00 | 0.00 | 73 | 1028.8 |
| 20260509073346 | 16 | 173 | 6.4 | 11.3 | 0.00 | 0.00 | 0.00 | 73 | 1028.4 |
| 20260509072845 | 16 | 160 | 8.0 | 12.9 | 0.00 | 0.00 | 0.00 | 73 | 1028.4 |
| 20260509072345 | 16 | 138 | 8.0 | 12.9 | 0.00 | 0.00 | 0.00 | 74 | 1028.8 |
| 20260509071845 | 16 | 150 | 9.7 | 12.9 | 0.00 | 0.00 | 0.00 | 72 | 1028.8 |
| 20260509071345 | 16 | 167 | 6.4 | 11.3 | 0.00 | 0.00 | 0.00 | 71 | 1028.8 |
| 20260509070845 | 16 | 146 | 11.3 | 12.9 | 0.00 | 0.00 | 0.00 | 70 | 1028.8 |
| 20260509070345 | 16 | 162 | 9.7 | 12.9 | 0.00 | 0.00 | 0.00 | 72 | 1028.8 |
| 20260509065845 | 16 | 147 | 6.4 | 11.3 | 0.00 | 0.00 | 0.00 | 74 | 1028.4 |
| 20260509065345 | 16 | 136 | 9.7 | 14.5 | 0.00 | 0.00 | 0.00 | 72 | 1028.8 |
| 20260509064845 | 16 | 160 | 4.8 | 11.3 | 0.00 | 0.00 | 0.00 | 72 | 1028.8 |
| 20260509064346 | 16 | 175 | 9.7 | 14.5 | 0.00 | 0.00 | 0.00 | 71 | 1028.8 |
| 20260509063846 | 16 | 151 | 9.7 | 12.9 | 0.00 | 0.00 | 0.00 | 69 | 1028.8 |
| 20260509063345 | 16 | 107 | 11.3 | 12.9 | 0.00 | 0.00 | 0.00 | 69 | 1028.8 |
| 20260509062845 | 16 | 131 | 8.0 | 12.9 | 0.00 | 0.00 | 0.00 | 70 | 1028.8 |
| 20260509062345 | 16 | 151 | 12.9 | 20.9 | 0.00 | 0.00 | 0.00 | 68 | 1028.4 |
| 20260509061847 | 16 | 165 | 11.3 | 12.9 | 0.00 | 0.00 | 0.00 | 71 | 1028.8 |
| 20260509061346 | 16 | 155 | 9.7 | 12.9 | 0.00 | 0.00 | 0.00 | 71 | 1028.4 |
| 20260509060845 | 16 | 168 | 8.0 | 16.1 | 0.00 | 0.00 | 0.00 | 71 | 1028.8 |
| 20260509060346 | 16 | 153 | 8.0 | 14.5 | 0.00 | 0.00 | 0.00 | 71 | 1028.4 |
| 20260509055845 | 16 | 140 | 9.7 | 12.9 | 0.00 | 0.00 | 0.00 | 70 | 1028.4 |
| 20260509055345 | 17 | 155 | 8.0 | 11.3 | 0.00 | 0.00 | 0.00 | 71 | 1028.8 |
| 20260509054846 | 17 | 138 | 9.7 | 14.5 | 0.00 | 0.00 | 0.00 | 71 | 1028.4 |
| 20260509054345 | 17 | 149 | 6.4 | 11.3 | 0.00 | 0.00 | 0.00 | 71 | 1028.4 |
| 20260509053846 | 16 | 146 | 8.0 | 12.9 | 0.00 | 0.00 | 0.00 | 71 | 1028.4 |
| 20260509053346 | 16 | 142 | 8.0 | 14.5 | 0.00 | 0.00 | 0.00 | 71 | 1028.8 |
| 20260509052845 | 16 | 165 | 9.7 | 11.3 | 0.00 | 0.00 | 0.00 | 71 | 1028.4 |
| 20260509052345 | 17 | 140 | 8.0 | 14.5 | 0.00 | 0.00 | 0.00 | 73 | 1028.8 |
| 20260509051846 | 17 | 171 | 6.4 | 12.9 | 0.00 | 0.00 | 0.00 | 72 | 1028.4 |
| 20260509051345 | 17 | 122 | 8.0 | 12.9 | 0.00 | 0.00 | 0.00 | 74 | 1028.4 |
| 20260509050846 | 17 | 134 | 8.0 | 14.5 | 0.00 | 0.00 | 0.00 | 72 | 1028.8 |
| 20260509050345 | 17 | 152 | 8.0 | 16.1 | 0.00 | 0.00 | 0.00 | 72 | 1028.8 |
| 20260509045845 | 17 | 172 | 9.7 | 14.5 | 0.00 | 0.00 | 0.00 | 72 | 1028.8 |
| 20260509045345 | 17 | 177 | 6.4 | 11.3 | 0.00 | 0.00 | 0.00 | 73 | 1028.8 |
| 20260509044845 | 17 | 151 | 6.4 | 12.9 | 0.00 | 0.00 | 0.00 | 75 | 1028.8 |
| 20260509043858 | 17 | 169 | 8.0 | 11.3 | 0.00 | 0.00 | 0.00 | 75 | 1028.8 |
| 20260509043346 | 17 | 181 | 11.3 | 11.3 | 0.00 | 0.00 | 0.00 | 73 | 1029.1 |
| 20260509042845 | 17 | 215 | 12.9 | 14.5 | 0.00 | 0.00 | 0.00 | 73 | 1028.8 |
| 20260509042345 | 17 | 135 | 8.0 | 11.3 | 0.00 | 0.00 | 0.00 | 75 | 1029.1 |
| 20260509041845 | 17 | 157 | 11.3 | 14.5 | 0.00 | 0.00 | 0.00 | 75 | 1029.1 |
| 20260509041345 | 17 | 155 | 8.0 | 12.9 | 0.00 | 0.00 | 0.00 | 75 | 1029.1 |
| 20260509040845 | 17 | 158 | 11.3 | 12.9 | 0.00 | 0.00 | 0.00 | 73 | 1029.1 |
| 20260509040346 | 17 | 192 | 8.0 | 11.3 | 0.00 | 0.00 | 0.00 | 73 | 1029.5 |
| 20260509035846 | 17 | 128 | 6.4 | 11.3 | 0.00 | 0.00 | 0.00 | 74 | 1029.1 |
| 20260509035346 | 17 | 121 | 4.8 | 8.0 | 0.00 | 0.00 | 0.00 | 76 | 1029.5 |
| 20260509034845 | 17 | 155 | 6.4 | 11.3 | 0.00 | 0.00 | 0.00 | 74 | 1029.5 |
| 20260509034345 | 17 | 138 | 9.7 | 11.3 | 0.00 | 0.00 | 0.00 | 72 | 1029.5 |
| 20260509033846 | 17 | 150 | 6.4 | 11.3 | 0.00 | 0.00 | 0.00 | 73 | 1029.8 |
| 20260509033345 | 17 | 125 | 6.4 | 11.3 | 0.00 | 0.00 | 0.00 | 75 | 1029.5 |
| 20260509032845 | 17 | 173 | 11.3 | 12.9 | 0.00 | 0.00 | 0.00 | 74 | 1029.8 |
| 20260509032345 | 17 | 138 | 9.7 | 12.9 | 0.00 | 0.00 | 0.00 | 73 | 1029.8 |
| 20260509031845 | 17 | 142 | 4.8 | 12.9 | 0.00 | 0.00 | 0.00 | 75 | 1029.8 |
| 20260509031345 | 17 | 160 | 6.4 | 8.0 | 0.00 | 0.00 | 0.00 | 72 | 1030.1 |
| 20260509030851 | 17 | 148 | 8.0 | 12.9 | 0.00 | 0.00 | 0.00 | 75 | 1029.8 |
| 20260509030345 | 17 | 142 | 11.3 | 14.5 | 0.00 | 0.00 | 0.00 | 72 | 1030.1 |
| 20260509025846 | 17 | 148 | 6.4 | 11.3 | 0.00 | 0.00 | 0.00 | 74 | 1030.5 |
| 20260509025345 | 17 | 88 | 4.8 | 9.7 | 0.00 | 0.00 | 0.00 | 77 | 1030.5 |
| 20260509024845 | 17 | 131 | 6.4 | 9.7 | 0.00 | 0.00 | 0.00 | 76 | 1030.5 |
| 20260509024345 | 17 | 150 | 11.3 | 14.5 | 0.00 | 0.00 | 0.00 | 75 | 1030.5 |
| 20260509023846 | 17 | 132 | 6.4 | 9.7 | 0.00 | 0.00 | 0.00 | 73 | 1030.5 |
| 20260509023345 | 17 | 100 | 6.4 | 8.0 | 0.00 | 0.00 | 0.00 | 76 | 1030.8 |
| 20260509022846 | 16 | 143 | 6.4 | 11.3 | 0.00 | 0.00 | 0.00 | 77 | 1030.8 |
| 20260509022347 | 16 | 152 | 6.4 | 14.5 | 0.00 | 0.00 | 0.00 | 78 | 1030.8 |